Location: Kalberh�ni
(46.4610°N, 7.2453°E)
Time: 14:54:58
(UTC+00:00)

Lacrosse 4 Rocket - Pass Details

Date: 18 October 2021
Orbit: 537 x 619 km, 68.0° (Epoch: 04 December)

Event Time Altitude Azimuth Distance (km) Brightness Sun altitude
Rises 18:39:34 0° 333° (NNW) 2,794 5.4 -21.5°
Reaches altitude 10° 18:41:53 10° 341° (NNW) 1,906 4.4 -21.9°
Enters shadow 18:45:02 35° 21° (NNE) 955 2.4 -22.4°
